"Pseudo-MPEC" for CAXJ8W2

Created 2024 Oct 10 17:22:04 UT using Find_Orb

Click here for an explanation of pseudo-MPECs

 
 Astrometry: 
     CAXJ8W2*1C2024 09 27.43169404 30 03.589+33 02 23.24   ~9RBb 22.37GVNEOCPG96
     CAXJ8W2 1C2024 09 27.43751304 30 03.568+33 02 18.35   ~9RBb 20.49GVNEOCPG96
     CAXJ8W2 1C2024 09 27.44334804 30 03.622+33 02 10.39   ~9RBb 22.04GVNEOCPG96
     CAXJ8W2 1C2024 09 27.44916404 30 03.780+33 02 03.05   ~9RBb 21.00GVNEOCPG96

Station data:
(G96) Mt. Lemmon Survey  (N32.442729 W110.788720)  US/Arizona.  Observer E.
   J. Christensen. 1.5-m reflector + 10K CCD.

Orbital elements:  CAXJ8W2
   Perihelion 2025 Mar 15.57846 +/- 125 TT = 13:52:59 (JD 2460750.07846)
Epoch 2024 Sep 27.0 TT = JDT 2460580.5   Earth MOID: 0.3687   Ma: 0.0203
M 203.15637195 +/- 110              (J2000 ecliptic)             AutoNEOCP
n   0.92490298 +/- 0.554            Peri.  340.30297 +/- 80
a   1.04329052 +/- 0.416            Node   219.55818 +/- 13
e   0.4329960 +/- 0.18              Incl.   37.88644 +/- 18
P   1.066/389.223d         H 19.96  G  0.15   U 12.4  SR
q 0.59154980 +/- 0.539    Q 1.49503123 +/- 2.05
From 4 observations 2024 Sept. 27 (25.2 min); mean residual 0".66
Residuals in arcseconds: 
240927 G96  .55+  .78-    240927 G96  .62-  .06+    
240927 G96  .51-  1.2+    240927 G96  .58+  .43-    

Ephemerides (geocentric):
Date (UTC) HH   RA             Dec           delta  r     elong  mag " sig PA
---- --------  ------------   ------------  ------ ------ -----  --- --------
2024 10 10 17  04 27 35.807   +27 11 29.89  .60646 1.4519 127.9 21.1  26d  69
2024 10 10 18  04 27 34.098   +27 10 03.42  .60601 1.4518 127.9 21.1  26d  69
2024 10 10 19  04 27 32.380   +27 08 36.79  .60555 1.4517 128.0 21.1  26d  69
2024 10 10 20  04 27 30.653   +27 07 10.02  .60509 1.4516 128.0 21.1  26d  69
2024 10 10 21  04 27 28.918   +27 05 43.09  .60464 1.4515 128.1 21.1  26d  69
2024 10 10 22  04 27 27.175   +27 04 16.00  .60418 1.4514 128.1 21.1  26d  69
2024 10 10 23  04 27 25.422   +27 02 48.76  .60373 1.4513 128.2 21.1  26d  69
2024 10 11 00  04 27 23.661   +27 01 21.37  .60327 1.4512 128.2 21.0  26d  69
2024 10 11 01  04 27 21.891   +26 59 53.82  .60282 1.4511 128.3 21.0  26d  69
2024 10 11 02  04 27 20.113   +26 58 26.12  .60236 1.4510 128.3 21.0  26d  69
2024 10 11 03  04 27 18.326   +26 56 58.26  .60191 1.4509 128.4 21.0  26d  69
2024 10 11 04  04 27 16.530   +26 55 30.25  .60145 1.4508 128.4 21.0  26d  69
2024 10 11 05  04 27 14.726   +26 54 02.08  .60100 1.4507 128.5 21.0  26d 111
2024 10 11 06  04 27 12.913   +26 52 33.76  .60055 1.4507 128.6 21.0  26d 111
2024 10 11 07  04 27 11.091   +26 51 05.28  .60009 1.4506 128.6 21.0  26d 111
2024 10 11 08  04 27 09.261   +26 49 36.64  .59964 1.4505 128.7 21.0  26d 111
2024 10 11 09  04 27 07.422   +26 48 07.85  .59919 1.4504 128.7 21.0  26d 111
2024 10 11 10  04 27 05.574   +26 46 38.90  .59873 1.4503 128.8 21.0  26d 111
2024 10 11 11  04 27 03.717   +26 45 09.79  .59828 1.4502 128.8 21.0  26d 111
2024 10 11 12  04 27 01.852   +26 43 40.53  .59783 1.4501 128.9 21.0  26d 111
2024 10 11 13  04 26 59.978   +26 42 11.11  .59738 1.4500 128.9 21.0  26d 111
2024 10 11 14  04 26 58.095   +26 40 41.53  .59692 1.4499 129.0 21.0  26d 111
2024 10 11 15  04 26 56.203   +26 39 11.79  .59647 1.4498 129.0 21.0  26d 111
2024 10 11 16  04 26 54.303   +26 37 41.89  .59602 1.4497 129.1 21.0  26d 111
2024 10 11 17  04 26 52.394   +26 36 11.84  .59557 1.4496 129.1 21.0  26d 111
2024 10 11 18  04 26 50.476   +26 34 41.62  .59512 1.4495 129.2 21.0  26d 111
2024 10 11 19  04 26 48.549   +26 33 11.25  .59467 1.4494 129.2 21.0  26d 111
2024 10 11 20  04 26 46.613   +26 31 40.72  .59422 1.4493 129.3 21.0  26d 111
2024 10 11 21  04 26 44.669   +26 30 10.02  .59377 1.4492 129.4 21.0  26d 111
2024 10 11 22  04 26 42.716   +26 28 39.17  .59332 1.4491 129.4 21.0  26d 111
2024 10 11 23  04 26 40.754   +26 27 08.16  .59287 1.4490 129.5 21.0  26d 111
2024 10 12 00  04 26 38.783   +26 25 36.98  .59242 1.4489 129.5 21.0  26d 111
2024 10 12 01  04 26 36.804   +26 24 05.65  .59197 1.4488 129.6 21.0  26d 111
2024 10 12 02  04 26 34.815   +26 22 34.15  .59152 1.4487 129.6 21.0  26d 111
2024 10 12 03  04 26 32.818   +26 21 02.50  .59107 1.4486 129.7 21.0  26d 111
2024 10 12 04  04 26 30.812   +26 19 30.68  .59062 1.4485 129.7 21.0  26d 111
2024 10 12 05  04 26 28.797   +26 17 58.70  .59018 1.4485 129.8 21.0  26d 111
2024 10 12 06  04 26 26.773   +26 16 26.56  .58973 1.4484 129.8 21.0  26d 111
2024 10 12 07  04 26 24.740   +26 14 54.25  .58928 1.4483 129.9 21.0  26d 111
2024 10 12 08  04 26 22.699   +26 13 21.78  .58883 1.4482 129.9 21.0  26d 111
2024 10 12 09  04 26 20.648   +26 11 49.15  .58839 1.4481 130.0 21.0  26d 111
2024 10 12 10  04 26 18.589   +26 10 16.36  .58794 1.4480 130.1 21.0  26d 111
2024 10 12 11  04 26 16.520   +26 08 43.40  .58749 1.4479 130.1 21.0  26d 111
2024 10 12 12  04 26 14.443   +26 07 10.28  .58705 1.4478 130.2 21.0  26d 111
2024 10 12 13  04 26 12.357   +26 05 36.99  .58660 1.4477 130.2 21.0  26d 111
2024 10 12 14  04 26 10.262   +26 04 03.54  .58615 1.4476 130.3 21.0  26d 111
2024 10 12 15  04 26 08.158   +26 02 29.93  .58571 1.4475 130.3 21.0  26d 111
2024 10 12 16  04 26 06.045   +26 00 56.15  .58526 1.4474 130.4 20.9  26d 111